MSR1852 HAAB-HECA

Flight info

Callsign MSR1852
Flight time N/A
Altitude 37000
Route RANSO UM308 KONET UG650 RASKA DCT JDW/N0471F360 L677 CVO
Aircraft B738/M-SDE2E3FGHIRWXY/LB1

Departure

Time 2026-05-01 12:16
Airport Addis Ababa Bole International Airport (HAAB)

Arrival

Time N/A
Airport Cairo International Airport (HECA)
Time Latitude Longitude Altitude Speed Heading
2026-05-01 11:27 8.98224 38.79593 7315 ft 0 kts 345°
2026-05-01 12:01 8.98213 38.79597 7854 ft 3 kts 345°
2026-05-01 12:01 8.98199 38.79600 7573 ft 3 kts 345°
2026-05-01 12:01 8.98173 38.79608 7617 ft 3 kts 345°
2026-05-01 12:02 8.98160 38.79612 7617 ft 3 kts 345°
2026-05-01 12:02 8.98141 38.79617 7618 ft 3 kts 345°
2026-05-01 12:02 8.98124 38.79621 7621 ft 3 kts 352°
2026-05-01 12:02 8.98110 38.79622 7615 ft 3 kts 47°
2026-05-01 12:03 8.98104 38.79607 7617 ft 3 kts 73°
2026-05-01 12:03 8.98102 38.79601 7616 ft 0 kts 73°
2026-05-01 12:06 8.98104 38.79606 7620 ft 3 kts 72°
2026-05-01 12:07 8.98122 38.79634 7621 ft 5 kts 43°
2026-05-01 12:07 8.98150 38.79657 7620 ft 5 kts 39°
2026-05-01 12:07 8.98176 38.79684 7622 ft 6 kts 56°
2026-05-01 12:07 8.98185 38.79726 7620 ft 7 kts 95°
2026-05-01 12:08 8.98151 38.79758 7620 ft 8 kts 161°
2026-05-01 12:08 8.98096 38.79772 7620 ft 9 kts 165°
2026-05-01 12:08 8.98032 38.79789 7620 ft 10 kts 165°
2026-05-01 12:08 8.97963 38.79808 7620 ft 10 kts 165°
2026-05-01 12:09 8.97893 38.79827 7620 ft 10 kts 170°
2026-05-01 12:09 8.97865 38.79822 7620 ft 3 kts 207°
2026-05-01 12:09 8.97855 38.79806 7620 ft 3 kts 252°
2026-05-01 12:09 8.97850 38.79786 7620 ft 3 kts 256°
2026-05-01 12:10 8.97842 38.79753 7619 ft 6 kts 253°
2026-05-01 12:10 8.97804 38.79627 7619 ft 12 kts 253°
2026-05-01 12:10 8.97779 38.79541 7618 ft 14 kts 253°
2026-05-01 12:11 8.97717 38.79329 7617 ft 18 kts 253°
2026-05-01 12:11 8.97682 38.79211 7618 ft 17 kts 254°
2026-05-01 12:11 8.97648 38.79095 7619 ft 17 kts 253°
2026-05-01 12:12 8.97615 38.78984 7619 ft 16 kts 253°
2026-05-01 12:12 8.97584 38.78878 7620 ft 15 kts 253°
2026-05-01 12:12 8.97549 38.78756 7621 ft 20 kts 253°
2026-05-01 12:12 8.97505 38.78606 7620 ft 23 kts 253°
2026-05-01 12:13 8.97461 38.78454 7620 ft 19 kts 253°
2026-05-01 12:13 8.97469 38.78366 7621 ft 12 kts 290°
2026-05-01 12:13 8.97469 38.78296 7621 ft 9 kts 250°
2026-05-01 12:13 8.97435 38.78261 7621 ft 7 kts 190°
2026-05-01 12:14 8.97419 38.78262 7621 ft 2 kts 168°
2026-05-01 12:14 8.97409 38.78273 7621 ft 3 kts 110°
2026-05-01 12:14 8.97411 38.78288 7621 ft 0 kts 73°
2026-05-01 12:14 8.97411 38.78289 7621 ft 1 kts 73°
2026-05-01 12:15 8.97475 38.78505 7620 ft 66 kts 73°
2026-05-01 12:15 8.97665 38.79156 7618 ft 126 kts 73°
2026-05-01 12:15 8.97965 38.80180 7623 ft 176 kts 73°
2026-05-01 12:15 8.98342 38.81466 7982 ft 195 kts 72°
2026-05-01 12:16 8.98711 38.82798 8763 ft 197 kts 73°
2026-05-01 12:16 8.99076 38.84149 9486 ft 203 kts 73°
2026-05-01 12:16 8.99460 38.85586 9797 ft 221 kts 72°
2026-05-01 12:16 8.99886 38.87145 9992 ft 238 kts 72°
2026-05-01 12:17 9.00346 38.88818 10164 ft 256 kts 72°
2026-05-01 12:17 9.00837 38.90602 10409 ft 271 kts 73°
2026-05-01 12:17 9.01363 38.92513 10519 ft 293 kts 73°
2026-05-01 12:17 9.01932 38.94577 10687 ft 316 kts 73°
2026-05-01 12:18 9.02541 38.96786 10861 ft 336 kts 73°
2026-05-01 12:18 9.03190 38.99131 11015 ft 356 kts 73°
2026-05-01 12:18 9.03871 39.01595 11300 ft 369 kts 73°
2026-05-01 12:18 9.04570 39.04115 11811 ft 374 kts 73°
2026-05-01 12:19 9.05270 39.06647 12453 ft 374 kts 72°
2026-05-01 12:19 9.06444 39.08985 13014 ft 377 kts 50°
2026-05-01 12:19 9.08490 39.10637 13624 ft 379 kts 29°
2026-05-01 12:19 9.10961 39.11590 14231 ft 383 kts 17°
2026-05-01 12:20 9.13508 39.12283 14796 ft 386 kts 15°
2026-05-01 12:20 9.16152 39.12978 15347 ft 389 kts 15°
2026-05-01 12:20 9.18744 39.13673 15883 ft 392 kts 16°
2026-05-01 12:20 9.21394 39.14404 16416 ft 396 kts 17°
2026-05-01 12:21 9.24056 39.15154 16908 ft 399 kts 17°
2026-05-01 12:21 9.26746 39.15914 17389 ft 402 kts 16°
2026-05-01 12:21 9.29501 39.16458 17861 ft 406 kts
2026-05-01 12:21 9.32330 39.16707 18325 ft 410 kts
2026-05-01 12:22 9.35190 39.16894 18753 ft 413 kts
2026-05-01 12:22 9.38072 39.17078 19155 ft 417 kts
2026-05-01 12:22 9.40977 39.17282 19553 ft 420 kts
2026-05-01 12:22 9.43903 39.17505 19942 ft 423 kts
2026-05-01 12:23 9.46853 39.17744 20309 ft 427 kts
2026-05-01 12:23 9.49817 39.17990 20673 ft 429 kts
2026-05-01 12:23 9.52806 39.18243 21027 ft 432 kts
2026-05-01 12:23 9.55813 39.18497 21377 ft 435 kts
2026-05-01 12:24 9.58840 39.18753 21713 ft 438 kts
2026-05-01 12:24 9.61879 39.19009 22033 ft 440 kts
2026-05-01 12:24 9.64943 39.19267 22342 ft 443 kts
2026-05-01 12:24 9.68023 39.19526 22643 ft 445 kts
2026-05-01 12:25 9.71116 39.19786 22934 ft 447 kts
2026-05-01 12:25 9.77354 39.20312 23490 ft 452 kts
2026-05-01 12:25 9.80494 39.20576 23752 ft 454 kts
2026-05-01 12:26 9.83649 39.20842 24004 ft 456 kts
2026-05-01 12:26 9.90004 39.21378 24508 ft 460 kts
2026-05-01 12:26 9.93199 39.21648 24770 ft 461 kts
2026-05-01 12:27 9.96398 39.21918 25025 ft 463 kts
2026-05-01 12:27 10.02835 39.22461 25497 ft 466 kts
2026-05-01 12:28 10.09314 39.23008 25950 ft 469 kts
2026-05-01 12:28 10.12562 39.23282 26174 ft 470 kts
2026-05-01 12:28 10.19061 39.23830 26585 ft 473 kts
2026-05-01 12:29 10.22382 39.24112 26806 ft 474 kts
2026-05-01 12:29 10.25628 39.24386 27004 ft 475 kts
2026-05-01 12:29 10.32274 39.24947 27399 ft 477 kts
2026-05-01 12:30 10.38912 39.25509 27773 ft 480 kts
2026-05-01 12:30 10.42195 39.25787 27939 ft 481 kts
2026-05-01 12:30 10.45535 39.26069 28107 ft 482 kts
2026-05-01 12:31 10.48925 39.26356 28290 ft 483 kts
2026-05-01 12:31 10.52279 39.26640 28450 ft 484 kts
2026-05-01 12:31 10.55601 39.26922 28601 ft 485 kts
2026-05-01 12:31 10.58962 39.27206 28807 ft 485 kts
2026-05-01 12:32 10.62321 39.27491 29079 ft 484 kts
2026-05-01 12:32 10.69012 39.28058 29607 ft 482 kts
2026-05-01 12:32 10.72356 39.28277 29836 ft 481 kts
2026-05-01 12:33 10.75698 39.28209 30060 ft 480 kts 356°
2026-05-01 12:33 10.79029 39.27974 30314 ft 480 kts 354°
2026-05-01 12:33 10.82350 39.27685 30584 ft 479 kts 354°
2026-05-01 12:33 10.85667 39.27400 30841 ft 478 kts 354°
2026-05-01 12:34 10.88976 39.27141 31105 ft 477 kts 355°
2026-05-01 12:34 10.92290 39.26908 31372 ft 477 kts 355°
2026-05-01 12:34 10.95594 39.26693 31637 ft 476 kts 355°
2026-05-01 12:34 10.98896 39.26488 31912 ft 475 kts 355°
2026-05-01 12:35 11.02194 39.26287 32182 ft 474 kts 355°
2026-05-01 12:35 11.05488 39.26087 32459 ft 473 kts 355°
2026-05-01 12:35 11.08766 39.25887 32722 ft 472 kts 355°
2026-05-01 12:35 11.12051 39.25685 32948 ft 473 kts 355°
2026-05-01 12:36 11.15331 39.25482 33229 ft 472 kts 355°
2026-05-01 12:36 11.18600 39.25279 33541 ft 470 kts 355°
2026-05-01 12:36 11.21860 39.25077 33811 ft 469 kts 355°
2026-05-01 12:36 11.25117 39.24875 34014 ft 470 kts 355°
2026-05-01 12:37 11.28379 39.24672 34288 ft 469 kts 355°
2026-05-01 12:37 11.31629 39.24470 34609 ft 467 kts 355°
2026-05-01 12:37 11.34863 39.24270 34893 ft 466 kts 355°
2026-05-01 12:37 11.38046 39.24072 35125 ft 466 kts 355°
2026-05-01 12:38 11.41332 39.23843 35366 ft 465 kts 353°
2026-05-01 12:38 11.44549 39.23529 35615 ft 464 kts 352°
2026-05-01 12:38 11.47758 39.23168 35871 ft 463 kts 352°
2026-05-01 12:38 11.50955 39.22794 36114 ft 462 kts 352°
2026-05-01 12:39 11.54107 39.22426 36327 ft 462 kts 352°
2026-05-01 12:39 11.57308 39.22060 36496 ft 463 kts 352°
2026-05-01 12:39 11.60507 39.21701 36686 ft 463 kts 352°
2026-05-01 12:39 11.63706 39.21349 36906 ft 462 kts 352°
2026-05-01 12:40 11.66892 39.21002 37146 ft 460 kts 352°
2026-05-01 12:40 11.70087 39.20655 37160 ft 463 kts 352°
2026-05-01 12:40 11.76473 39.19965 37154 ft 459 kts 352°
2026-05-01 12:41 11.82784 39.19284 37162 ft 453 kts 352°
2026-05-01 12:41 11.89035 39.18606 37152 ft 450 kts 352°
2026-05-01 12:42 11.95248 39.17932 37143 ft 448 kts 352°
2026-05-01 12:42 12.01435 39.17260 37131 ft 446 kts 352°
2026-05-01 12:43 12.07611 39.16589 37137 ft 446 kts 352°
2026-05-01 12:43 12.13790 39.15918 37138 ft 447 kts 352°
2026-05-01 12:44 12.19995 39.15242 37147 ft 450 kts 352°
2026-05-01 12:45 12.32518 39.13880 37142 ft 455 kts 352°
2026-05-01 12:45 12.38823 39.13194 37133 ft 457 kts 352°
2026-05-01 12:46 12.45154 39.12504 37123 ft 458 kts 352°
2026-05-01 12:46 12.51445 39.11818 37120 ft 458 kts 352°
2026-05-01 12:47 12.57778 39.11129 37109 ft 457 kts 352°
2026-05-01 12:47 12.64100 39.10439 37106 ft 457 kts 352°
2026-05-01 12:48 12.70417 39.09750 37103 ft 456 kts 352°
2026-05-01 12:48 12.76721 39.09062 37109 ft 455 kts 352°
2026-05-01 12:49 12.83025 39.08373 37063 ft 455 kts 352°
2026-05-01 12:49 12.89321 39.07685 37057 ft 455 kts 352°
2026-05-01 12:50 12.94544 39.07114 37039 ft 454 kts 352°
2026-05-01 12:50 13.00823 39.06428 37046 ft 453 kts 352°
2026-05-01 12:51 13.07092 39.05742 37039 ft 453 kts 352°
2026-05-01 12:52 13.16492 39.04712 37036 ft 453 kts 352°
2026-05-01 12:52 13.25914 39.03679 37024 ft 454 kts 352°
2026-05-01 12:53 13.35355 39.02643 37019 ft 455 kts 352°
2026-05-01 12:54 13.41654 39.01952 37018 ft 456 kts 352°
2026-05-01 12:54 13.51081 39.00916 37008 ft 456 kts 352°
2026-05-01 12:55 13.60556 38.99875 37011 ft 457 kts 352°
2026-05-01 12:56 13.66886 38.99179 37003 ft 457 kts 352°
2026-05-01 12:56 13.73221 38.98482 36999 ft 458 kts 352°
2026-05-01 12:57 13.79554 38.97784 36991 ft 458 kts 352°
2026-05-01 12:57 13.89055 38.96737 36989 ft 457 kts 352°
2026-05-01 12:58 13.95378 38.96040 36987 ft 457 kts 352°
2026-05-01 12:59 14.04863 38.94994 36978 ft 457 kts 352°
2026-05-01 12:59 14.14308 38.93950 36980 ft 458 kts 352°
2026-05-01 13:00 14.23816 38.92898 36977 ft 458 kts 352°
2026-05-01 13:01 14.33326 38.91847 36971 ft 458 kts 352°
2026-05-01 13:02 14.42845 38.90793 36965 ft 459 kts 352°
2026-05-01 13:07 15.13466 38.90081 36939 ft 463 kts 358°
2026-05-01 13:08 15.19910 38.90089 36936 ft 463 kts 358°
2026-05-01 13:08 15.26347 38.90097 36931 ft 463 kts 358°
2026-05-01 13:09 15.32794 38.90182 36928 ft 463 kts 359°
2026-05-01 13:09 15.39239 38.90435 36935 ft 463 kts
2026-05-01 13:10 15.45687 38.90701 36918 ft 464 kts 360°
2026-05-01 13:10 15.52149 38.90945 36928 ft 465 kts 359°
2026-05-01 13:11 15.58613 38.91178 36910 ft 465 kts 359°
2026-05-01 13:11 15.65078 38.91407 36920 ft 465 kts 359°
2026-05-01 13:12 15.71549 38.91637 36916 ft 465 kts 359°
2026-05-01 13:12 15.77973 38.91865 36923 ft 465 kts 359°
2026-05-01 13:13 15.84447 38.92096 36923 ft 466 kts 359°
2026-05-01 13:13 15.90927 38.92328 36912 ft 466 kts 359°
2026-05-01 13:14 15.97410 38.92562 36899 ft 466 kts 359°
2026-05-01 13:14 16.03896 38.92794 36913 ft 466 kts 359°
2026-05-01 13:15 16.10380 38.93025 36904 ft 466 kts 359°
2026-05-01 13:15 16.16870 38.93258 36911 ft 466 kts 359°
2026-05-01 13:16 16.23357 38.93491 36905 ft 466 kts 359°
2026-05-01 13:16 16.29840 38.93724 36909 ft 466 kts 359°
2026-05-01 13:17 16.42809 38.94189 36897 ft 466 kts 359°
2026-05-01 13:18 16.52488 38.94538 36889 ft 466 kts 359°
2026-05-01 13:18 16.58967 38.94770 36895 ft 466 kts 359°
2026-05-01 13:19 16.65444 38.95003 36903 ft 466 kts 359°
2026-05-01 13:20 16.75165 38.95354 36897 ft 467 kts 359°
2026-05-01 13:20 16.81657 38.95588 36901 ft 467 kts 359°
2026-05-01 13:21 16.91393 38.95940 36887 ft 467 kts 359°
2026-05-01 13:21 16.97891 38.96175 36922 ft 466 kts 359°
2026-05-01 13:22 17.04361 38.96410 37012 ft 464 kts 359°
2026-05-01 13:22 17.10822 38.96644 37028 ft 464 kts 359°
2026-05-01 13:23 17.17279 38.96877 37038 ft 465 kts 359°
2026-05-01 13:23 17.23753 38.97112 37038 ft 466 kts 359°
2026-05-01 13:24 17.30229 38.97347 37043 ft 466 kts 358°
2026-05-01 13:25 17.39961 38.97700 37035 ft 467 kts 358°
2026-05-01 13:25 17.46416 38.97935 37038 ft 467 kts 358°
2026-05-01 13:26 17.52915 38.98170 37033 ft 467 kts 358°
2026-05-01 13:26 17.59409 38.98406 37035 ft 467 kts 358°
2026-05-01 13:27 17.65914 38.98642 37037 ft 467 kts 358°
2026-05-01 13:27 17.75655 38.98998 37042 ft 467 kts 358°
2026-05-01 13:28 17.85404 38.99354 36998 ft 467 kts 358°
2026-05-01 13:29 17.98395 38.99827 36989 ft 467 kts 358°
2026-05-01 13:31 18.17832 39.00541 37000 ft 465 kts 358°
2026-05-01 13:32 18.33994 39.01441 37057 ft 464 kts 358°
2026-05-01 13:33 18.50069 39.02334 37143 ft 465 kts 358°
2026-05-01 13:34 18.63043 39.03049 37118 ft 469 kts 358°
2026-05-01 13:35 18.72857 39.03592 37005 ft 472 kts 358°
2026-05-01 13:36 18.82675 39.04139 36996 ft 470 kts 358°
2026-05-01 13:36 18.92467 39.04682 36989 ft 469 kts 358°
2026-05-01 13:37 18.97881 39.04982 36990 ft 468 kts 358°
2026-05-01 13:37 19.05483 39.05404 36980 ft 468 kts 358°
2026-05-01 13:38 19.15224 39.05917 36981 ft 466 kts 356°
2026-05-01 13:39 19.21695 39.06081 36971 ft 465 kts 355°
2026-05-01 13:39 19.28120 39.06205 36970 ft 465 kts 355°
2026-05-01 13:40 19.34586 39.06346 36965 ft 465 kts 356°
2026-05-01 13:40 19.41060 39.06501 36964 ft 466 kts 356°
2026-05-01 13:41 19.47548 39.06664 36951 ft 466 kts 356°
2026-05-01 13:41 19.54032 39.06826 36949 ft 467 kts 356°
2026-05-01 13:42 19.60531 39.06988 36944 ft 467 kts 355°
2026-05-01 13:42 19.67030 39.07151 36941 ft 467 kts 355°
2026-05-01 13:43 19.73534 39.07313 36934 ft 468 kts 355°
2026-05-01 13:43 19.78943 39.07447 36933 ft 468 kts 355°
2026-05-01 13:44 19.85449 39.07608 36928 ft 468 kts 355°
2026-05-01 13:44 19.93025 39.07797 36923 ft 468 kts 355°
2026-05-01 13:45 19.99541 39.07960 36915 ft 468 kts 355°
2026-05-01 13:45 20.04996 39.08097 36905 ft 469 kts 355°
2026-05-01 13:46 20.11526 39.08260 36880 ft 469 kts 355°
2026-05-01 13:46 20.18049 39.08424 36870 ft 469 kts 355°
2026-05-01 13:47 20.24574 39.08588 36869 ft 469 kts 355°
2026-05-01 13:47 20.31089 39.08752 36867 ft 468 kts 355°
2026-05-01 13:48 20.37596 39.08915 36880 ft 467 kts 355°
2026-05-01 13:48 20.44086 39.09078 36908 ft 467 kts 355°
2026-05-01 13:49 20.50573 39.09241 36909 ft 467 kts 355°
2026-05-01 13:49 20.57031 39.09403 36901 ft 467 kts 355°
2026-05-01 13:50 20.63528 39.09567 36905 ft 467 kts 355°
2026-05-01 13:50 20.70030 39.09730 36893 ft 468 kts 355°
2026-05-01 13:51 20.76544 39.09895 36890 ft 468 kts 354°
2026-05-01 13:51 20.83064 39.10060 36888 ft 469 kts 354°
2026-05-01 13:52 20.89531 39.10223 36888 ft 468 kts 354°
2026-05-01 13:52 20.96048 39.10388 36878 ft 468 kts 354°
2026-05-01 13:53 21.02559 39.10553 36880 ft 468 kts 354°
2026-05-01 13:53 21.12314 39.10800 36868 ft 467 kts 354°
2026-05-01 13:54 21.18817 39.10966 36870 ft 467 kts 354°
2026-05-01 13:54 21.25316 39.11131 36869 ft 467 kts 354°
2026-05-01 13:55 21.31816 39.11296 36827 ft 468 kts 354°
2026-05-01 13:55 21.35081 39.11377 36685 ft 471 kts 354°
2026-05-01 13:55 21.38354 39.11460 36563 ft 470 kts 354°
2026-05-01 13:56 21.41617 39.11544 36435 ft 468 kts 354°
2026-05-01 13:56 21.44873 39.11629 36318 ft 467 kts 354°
2026-05-01 13:56 21.48123 39.11713 36185 ft 467 kts 354°
2026-05-01 13:56 21.51369 39.11795 36062 ft 467 kts 354°
2026-05-01 13:57 21.54616 39.11876 35943 ft 468 kts 354°
2026-05-01 13:57 21.57882 39.11958 35881 ft 471 kts 354°
2026-05-01 13:57 21.64476 39.12126 35869 ft 476 kts 354°
2026-05-01 13:58 21.71040 39.11879 35855 ft 465 kts 342°
2026-05-01 13:58 21.77098 39.09877 35867 ft 452 kts 330°
2026-05-01 13:59 21.82901 39.07272 35862 ft 452 kts 330°
2026-05-01 13:59 21.88729 39.04665 35857 ft 454 kts 330°
2026-05-01 14:00 21.94579 39.02087 35858 ft 455 kts 330°
2026-05-01 14:00 22.00447 38.99517 35856 ft 456 kts 330°
2026-05-01 14:01 22.06325 38.96945 35856 ft 455 kts 330°
2026-05-01 14:01 22.12194 38.94373 35853 ft 455 kts 330°
2026-05-01 14:02 22.18050 38.91802 35857 ft 454 kts 330°
2026-05-01 14:02 22.23892 38.89235 35843 ft 453 kts 330°
2026-05-01 14:03 22.29735 38.86665 35835 ft 453 kts 330°
2026-05-01 14:03 22.35564 38.84099 35832 ft 452 kts 330°
2026-05-01 14:04 22.41387 38.81533 35832 ft 451 kts 330°
2026-05-01 14:04 22.46212 38.79406 35835 ft 451 kts 330°
2026-05-01 14:05 22.52997 38.76410 35834 ft 450 kts 330°
2026-05-01 14:05 22.58748 38.73867 35831 ft 450 kts 330°
2026-05-01 14:06 22.62845 38.72057 35833 ft 449 kts 330°
2026-05-01 14:06 22.68635 38.69493 35831 ft 449 kts 330°
2026-05-01 14:07 22.74423 38.66926 35834 ft 449 kts 330°
2026-05-01 14:08 22.83104 38.63069 35835 ft 450 kts 329°
2026-05-01 14:08 22.88897 38.60492 35834 ft 450 kts 329°
2026-05-01 14:09 22.94695 38.57911 35834 ft 451 kts 329°
2026-05-01 14:09 23.00497 38.55326 35834 ft 451 kts 329°
2026-05-01 14:10 23.06305 38.52736 35834 ft 451 kts 329°
2026-05-01 14:10 23.12114 38.50143 35835 ft 451 kts 329°
2026-05-01 14:11 23.17921 38.47548 35832 ft 451 kts 329°
2026-05-01 14:11 23.26628 38.43654 35831 ft 451 kts 329°
2026-05-01 14:12 23.32431 38.41055 35833 ft 451 kts 329°
2026-05-01 14:12 23.38162 38.38486 35820 ft 451 kts 329°
2026-05-01 14:13 23.42982 38.36324 35825 ft 450 kts 329°
2026-05-01 14:13 23.49746 38.33286 35825 ft 450 kts 329°
2026-05-01 14:14 23.55530 38.30685 35826 ft 449 kts 329°
2026-05-01 14:14 23.61306 38.28085 35813 ft 449 kts 329°
2026-05-01 14:15 23.67038 38.25506 35814 ft 449 kts 329°
2026-05-01 14:15 23.72813 38.22915 35814 ft 448 kts 329°
2026-05-01 14:16 23.78582 38.20324 35816 ft 448 kts 329°
2026-05-01 14:16 23.84348 38.17732 35806 ft 448 kts 329°
2026-05-01 14:17 23.90110 38.15138 35805 ft 448 kts 328°
2026-05-01 14:17 23.95869 38.12542 35807 ft 447 kts 328°
2026-05-01 14:18 24.01620 38.09948 35805 ft 447 kts 328°
2026-05-01 14:18 24.06401 38.07788 35805 ft 447 kts 328°
2026-05-01 14:19 24.13121 38.04751 35807 ft 447 kts 328°
2026-05-01 14:19 24.18425 38.01476 35814 ft 433 kts 317°
2026-05-01 14:20 24.25836 37.95826 35806 ft 433 kts 317°
2026-05-01 14:21 24.30761 37.92088 35803 ft 434 kts 317°
2026-05-01 14:21 24.35739 37.88336 35807 ft 435 kts 317°
2026-05-01 14:22 24.43228 37.82701 35815 ft 436 kts 317°
2026-05-01 14:22 24.48231 37.78933 35816 ft 436 kts 317°
2026-05-01 14:23 24.53235 37.75160 35813 ft 436 kts 317°
2026-05-01 14:23 24.58234 37.71385 35824 ft 436 kts 317°
2026-05-01 14:24 24.63235 37.67605 35826 ft 436 kts 317°
2026-05-01 14:24 24.68236 37.63821 35824 ft 436 kts 317°
2026-05-01 14:25 24.73232 37.60039 35835 ft 436 kts 317°
2026-05-01 14:25 24.78228 37.56253 35836 ft 436 kts 317°
2026-05-01 14:26 24.85706 37.50577 35846 ft 435 kts 317°
2026-05-01 14:27 24.90690 37.46789 35844 ft 435 kts 317°
2026-05-01 14:27 24.95668 37.43001 35849 ft 435 kts 317°
2026-05-01 14:28 25.03132 37.37317 35867 ft 435 kts 317°
2026-05-01 14:28 25.08109 37.33521 35860 ft 435 kts 317°
2026-05-01 14:29 25.13054 37.29746 35876 ft 435 kts 317°
2026-05-01 14:30 25.23010 37.22133 35867 ft 436 kts 317°
2026-05-01 14:31 25.30485 37.16406 35879 ft 436 kts 317°
2026-05-01 14:31 25.34627 37.13225 35882 ft 436 kts 317°
2026-05-01 14:32 25.40451 37.08749 35881 ft 436 kts 317°
2026-05-01 14:32 25.44603 37.05567 35880 ft 437 kts 317°
2026-05-01 14:33 25.49595 37.01744 35865 ft 436 kts 317°
2026-05-01 14:33 25.54584 36.97917 35887 ft 436 kts 317°
2026-05-01 14:34 25.59563 36.94091 35888 ft 436 kts 317°
2026-05-01 14:34 25.64541 36.90261 35889 ft 435 kts 317°
2026-05-01 14:35 25.69518 36.86429 35891 ft 436 kts 317°
2026-05-01 14:35 25.74494 36.82589 35888 ft 436 kts 317°
2026-05-01 14:36 25.79459 36.78741 35888 ft 436 kts 317°
2026-05-01 14:36 25.84425 36.74886 35890 ft 435 kts 317°
2026-05-01 14:37 25.89391 36.71027 35891 ft 435 kts 317°
2026-05-01 14:37 25.94351 36.67170 35887 ft 436 kts 317°
2026-05-01 14:38 25.99283 36.63332 35888 ft 435 kts 317°
2026-05-01 14:38 26.04234 36.59473 35888 ft 435 kts 317°
2026-05-01 14:39 26.09185 36.55610 35889 ft 434 kts 317°
2026-05-01 14:39 26.14126 36.51752 35887 ft 434 kts 317°
2026-05-01 14:40 26.18927 36.47726 35880 ft 425 kts 308°
2026-05-01 14:40 26.23023 36.43026 35886 ft 423 kts 306°
2026-05-01 14:41 26.27077 36.38290 35888 ft 422 kts 307°
2026-05-01 14:41 26.31152 36.33564 35890 ft 423 kts 307°
2026-05-01 14:42 26.35241 36.28841 35889 ft 423 kts 307°
2026-05-01 14:42 26.39336 36.24114 35890 ft 424 kts 307°
2026-05-01 14:43 26.43434 36.19379 35889 ft 424 kts 307°
2026-05-01 14:43 26.47531 36.14639 35888 ft 425 kts 307°
2026-05-01 14:44 26.51633 36.09888 35889 ft 425 kts 307°
2026-05-01 14:44 26.57775 36.02764 35890 ft 425 kts 307°
2026-05-01 14:45 26.63924 35.95619 35892 ft 424 kts 307°
2026-05-01 14:46 26.68016 35.90859 35887 ft 425 kts 307°
2026-05-01 14:46 26.74123 35.83743 35889 ft 425 kts 307°
2026-05-01 14:47 26.78213 35.78972 35888 ft 425 kts 307°
2026-05-01 14:48 26.84341 35.71816 35888 ft 424 kts 307°
2026-05-01 14:48 26.90468 35.64649 35889 ft 425 kts 307°
2026-05-01 14:49 26.98632 35.55077 35888 ft 425 kts 307°
2026-05-01 14:50 27.06794 35.45487 35890 ft 425 kts 307°
2026-05-01 14:51 27.12917 35.38277 35888 ft 425 kts 307°
2026-05-01 14:52 27.19034 35.31063 35883 ft 426 kts 307°
2026-05-01 14:53 27.25159 35.23827 35882 ft 426 kts 307°
2026-05-01 14:53 27.29214 35.19029 35880 ft 426 kts 307°
2026-05-01 14:54 27.33324 35.14162 35880 ft 426 kts 307°
2026-05-01 14:54 27.37375 35.09359 35882 ft 426 kts 307°
2026-05-01 14:55 27.41448 35.04523 35882 ft 426 kts 307°
2026-05-01 14:55 27.45521 34.99681 35883 ft 425 kts 307°
2026-05-01 14:56 27.49586 34.94845 35881 ft 425 kts 307°
2026-05-01 14:56 27.53758 34.90102 35883 ft 427 kts 310°
2026-05-01 14:57 27.58117 34.85531 35880 ft 428 kts 311°
2026-05-01 14:57 27.64656 34.78681 35881 ft 428 kts 311°
2026-05-01 14:58 27.68995 34.74092 35881 ft 428 kts 311°
2026-05-01 14:58 27.73333 34.69490 35882 ft 428 kts 311°
2026-05-01 14:59 27.77665 34.64888 35882 ft 428 kts 311°
2026-05-01 14:59 27.82003 34.60275 35880 ft 428 kts 311°
2026-05-01 15:00 27.88505 34.53350 35887 ft 428 kts 311°
2026-05-01 15:01 27.92841 34.48727 35889 ft 428 kts 311°
2026-05-01 15:01 27.97176 34.44102 35890 ft 428 kts 311°
2026-05-01 15:02 28.01316 34.39359 35892 ft 424 kts 305°
2026-05-01 15:02 28.05048 34.34193 35892 ft 424 kts 304°
2026-05-01 15:03 28.08745 34.28990 35883 ft 424 kts 304°
2026-05-01 15:03 28.12455 34.23812 35886 ft 421 kts 306°
2026-05-01 15:04 28.16145 34.18689 35871 ft 418 kts 306°
2026-05-01 15:04 28.19812 34.13601 35881 ft 415 kts 306°
2026-05-01 15:05 28.23453 34.08541 35877 ft 413 kts 306°
2026-05-01 15:05 28.27042 34.03545 35860 ft 412 kts 306°
2026-05-01 15:06 28.30691 33.98464 35876 ft 410 kts 306°
2026-05-01 15:06 28.34295 33.93436 35883 ft 411 kts 306°
2026-05-01 15:07 28.37909 33.88388 35869 ft 413 kts 306°
2026-05-01 15:07 28.41538 33.83313 35864 ft 414 kts 306°
2026-05-01 15:08 28.45145 33.78263 35856 ft 415 kts 306°
2026-05-01 15:08 28.48786 33.73160 35863 ft 416 kts 306°
2026-05-01 15:09 28.52433 33.68044 35867 ft 416 kts 306°
2026-05-01 15:09 28.56074 33.62925 35857 ft 417 kts 306°
2026-05-01 15:10 28.59715 33.57794 35873 ft 416 kts 306°
2026-05-01 15:10 28.65163 33.50114 35861 ft 415 kts 306°
2026-05-01 15:11 28.70588 33.42469 35858 ft 413 kts 306°
2026-05-01 15:12 28.74191 33.37383 35876 ft 412 kts 306°
2026-05-01 15:12 28.79571 33.29774 35881 ft 410 kts 306°
2026-05-01 15:14 28.88514 33.17093 35891 ft 410 kts 306°
2026-05-01 15:14 28.93877 33.09471 35890 ft 410 kts 306°
2026-05-01 15:15 29.01011 32.99308 35897 ft 410 kts 306°
2026-05-01 15:16 29.08142 32.89125 35908 ft 410 kts 306°
2026-05-01 15:18 29.17033 32.76396 35894 ft 403 kts 306°
2026-05-01 15:18 29.18759 32.73921 35549 ft 394 kts 306°
2026-05-01 15:19 29.23922 32.66500 33231 ft 403 kts 306°
2026-05-01 15:19 29.27453 32.61421 31449 ft 413 kts 306°
2026-05-01 15:19 29.28641 32.59709 30832 ft 416 kts 306°
2026-05-01 15:20 29.32814 32.53645 29147 ft 414 kts 306°
2026-05-01 15:20 29.34604 32.51034 28563 ft 409 kts 306°
2026-05-01 15:20 29.36326 32.48521 27961 ft 405 kts 306°
2026-05-01 15:21 29.38058 32.45991 27340 ft 402 kts 306°
2026-05-01 15:21 29.39781 32.43474 26704 ft 400 kts 306°
2026-05-01 15:21 29.41490 32.40975 26091 ft 397 kts 306°
2026-05-01 15:21 29.43185 32.38496 25470 ft 394 kts 306°
2026-05-01 15:22 29.46542 32.33581 24265 ft 388 kts 306°
2026-05-01 15:22 29.48203 32.31148 23667 ft 385 kts 306°
2026-05-01 15:22 29.49296 32.29547 23264 ft 384 kts 306°
2026-05-01 15:23 29.50932 32.27149 22704 ft 380 kts 306°
2026-05-01 15:23 29.52555 32.24766 22134 ft 377 kts 306°
2026-05-01 15:23 29.54164 32.22404 21580 ft 373 kts 306°
2026-05-01 15:23 29.55757 32.20065 21031 ft 370 kts 306°
2026-05-01 15:24 29.57335 32.17746 20467 ft 367 kts 306°
2026-05-01 15:24 29.58904 32.15438 19900 ft 365 kts 306°
2026-05-01 15:24 29.60460 32.13149 19359 ft 362 kts 306°
2026-05-01 15:24 29.62004 32.10876 18838 ft 359 kts 306°
2026-05-01 15:25 29.63532 32.08625 18318 ft 356 kts 306°
2026-05-01 15:25 29.65046 32.06393 17766 ft 353 kts 306°
2026-05-01 15:25 29.66550 32.04174 17246 ft 351 kts 306°
2026-05-01 15:25 29.68045 32.01968 16722 ft 348 kts 306°
2026-05-01 15:26 29.69526 31.99782 16200 ft 345 kts 306°
2026-05-01 15:26 29.70995 31.97611 15691 ft 343 kts 306°
2026-05-01 15:26 29.72455 31.95453 15184 ft 340 kts 307°
2026-05-01 15:26 29.73902 31.93313 14670 ft 338 kts 307°
2026-05-01 15:27 29.75337 31.91190 14140 ft 335 kts 307°
2026-05-01 15:27 29.76763 31.89079 13648 ft 333 kts 307°
2026-05-01 15:27 29.78180 31.86982 13142 ft 331 kts 307°
2026-05-01 15:28 29.80926 31.82768 12132 ft 326 kts 306°
2026-05-01 15:28 29.82270 31.80670 11628 ft 324 kts 306°
2026-05-01 15:28 29.83604 31.78590 11125 ft 323 kts 306°
2026-05-01 15:29 29.86032 31.74811 10285 ft 317 kts 306°
2026-05-01 15:29 29.87252 31.72765 10192 ft 304 kts 296°
2026-05-01 15:29 29.87626 31.68164 10036 ft 283 kts 266°
2026-05-01 15:30 29.87118 31.63816 9728 ft 268 kts 265°
2026-05-01 15:31 29.86051 31.55335 8540 ft 267 kts 264°
2026-05-01 15:31 29.85519 31.51093 8045 ft 269 kts 264°
2026-05-01 15:32 29.85414 31.46834 7556 ft 265 kts 274°
2026-05-01 15:32 29.85883 31.42773 7051 ft 260 kts 294°
2026-05-01 15:33 29.87998 31.37051 6250 ft 257 kts 294°
2026-05-01 15:34 29.90084 31.31467 5434 ft 245 kts 295°